Date String (YYYY-MM-DD hh:mm:ss) UTC,Instrument flags,Ambient pressure (hPa),Sample flow (lpm),Bypass flow (lpm),Sample temperature (°C),Ambient temperature (°C),ASC tube jacket temperature (°C),LED temperature (°C),Box temperature (°C),Sample RH (%),Span deviation,Mass concentration (μg/m³),Mass concentration (μg/m³),Mass concentration (μg/m³)
DateTimeUTC,F1_M11,P_M11,Q1_M11,Q2_M11,T1_M11,T2_M11,T3_M11,T4_M11,T5_M11,U1_M11,ZSPAN_M11,X0_M11,X2_M11,X1_M11
2021-09-03 16:00:00,,0829.8,5.01,0.00,29.8,28.5,00.0,38.8,31.5,30.2,0001.2,0022.08,0017.61,0016.77
2021-09-03 16:01:00,,0829.8,5.00,0.00,29.8,28.7,00.0,38.8,31.6,30.3,0001.4,0022.26,0017.58,0016.75
2021-09-03 16:02:00,,0829.8,4.99,0.00,29.8,28.8,00.0,38.9,31.6,30.2,0001.4,0022.70,0017.64,0016.75
2021-09-03 16:03:00,,0829.8,5.01,0.00,29.9,28.9,00.0,38.9,31.7,30.0,0001.6,0023.24,0017.62,0016.75
2021-09-03 16:04:00,,0829.8,5.00,0.00,29.9,29.0,00.0,38.9,31.7,30.0,0001.7,0023.22,0017.55,0016.71
2021-09-03 16:05:00,,0829.7,5.00,0.00,29.9,29.1,00.0,38.9,31.8,29.8,0001.8,0023.18,0017.51,0016.69
2021-09-03 16:06:00,,0829.7,4.99,0.00,30.0,29.1,00.0,38.9,31.8,29.6,0002.0,0024.23,0017.53,0016.72
2021-09-03 16:07:00,,0829.7,5.00,0.00,30.0,29.2,00.0,39.0,31.9,29.9,0001.9,0024.14,0017.47,0016.73
2021-09-03 16:08:00,,0829.6,5.02,0.00,30.0,28.6,00.0,39.0,31.7,29.7,0001.9,0024.32,0017.48,0016.74
2021-09-03 16:09:00,,0829.6,4.99,0.00,29.9,26.9,00.0,39.0,31.3,29.9,0001.9,0024.93,0017.52,0016.77
2021-09-03 16:10:00,,0829.5,5.00,0.00,29.8,26.2,00.0,38.9,31.1,30.2,0002.1,0026.04,0017.55,0016.79
2021-09-03 16:11:00,,0829.5,5.00,0.00,29.7,26.5,00.0,38.9,31.2,30.9,0002.1,0025.84,0017.60,0016.79
2021-09-03 16:12:00,,0829.5,5.00,0.00,29.7,27.0,00.0,38.9,31.2,31.4,0002.0,0025.96,0017.61,0016.80
2021-09-03 16:13:00,,0829.3,5.00,0.00,29.6,27.4,00.0,38.8,31.3,31.1,0001.9,0026.46,0017.60,0016.84
2021-09-03 16:14:00,,0829.2,4.99,0.00,29.7,27.7,00.0,38.8,31.3,31.3,0001.7,0025.83,0017.60,0016.84
2021-09-03 16:15:00,,0829.2,5.01,0.00,29.7,28.0,00.0,38.8,31.4,31.1,0001.6,0025.55,0017.64,0016.88
2021-09-03 16:16:00,,0829.2,5.00,0.00,29.7,28.3,00.0,38.8,31.5,31.1,0001.5,0025.73,0017.72,0016.91
2021-09-03 16:17:00,,0829.3,5.00,0.00,29.7,28.5,00.0,38.8,31.5,31.1,0001.5,0024.81,0017.71,0016.92
2021-09-03 16:18:00,,0829.3,5.01,0.00,29.8,28.6,00.0,38.8,31.6,30.9,0001.6,0025.02,0017.81,0016.95
2021-09-03 16:19:00,,0829.2,5.00,0.00,29.8,28.8,00.0,38.8,31.7,30.9,0001.6,0024.88,0017.85,0016.98
2021-09-03 16:20:00,,0829.2,5.01,0.00,29.8,28.9,00.0,38.9,31.7,30.8,0001.7,0024.21,0017.86,0017.00
2021-09-03 16:21:00,,0829.2,5.00,0.00,29.9,29.0,00.0,38.9,31.7,30.6,0001.6,0023.40,0017.89,0017.02
2021-09-03 16:22:00,,0829.2,5.00,0.00,29.9,29.1,00.0,38.9,31.8,31.1,0001.8,0023.28,0017.88,0017.05
2021-09-03 16:23:00,,0829.2,5.00,0.00,30.0,29.1,00.0,38.9,31.9,31.1,0002.0,0022.94,0017.89,0017.05
2021-09-03 16:24:00,,0829.5,4.99,0.00,30.0,29.2,00.0,38.9,31.9,31.1,0001.9,0022.14,0017.90,0017.05
2021-09-03 16:25:00,,0829.6,4.99,0.00,30.0,29.3,00.0,39.0,31.9,31.4,0001.9,0022.17,0017.88,0017.06
2021-09-03 16:26:00,,0829.7,5.00,0.00,30.1,28.8,00.0,39.0,31.8,31.4,0001.9,0022.28,0017.86,0017.08
2021-09-03 16:27:00,,0829.8,5.01,0.00,29.9,26.9,00.0,39.0,31.3,31.6,0002.0,0022.07,0017.82,0017.09
2021-09-03 16:28:00,,0829.8,5.00,0.00,29.8,26.1,00.0,38.9,31.0,31.7,0002.0,0022.74,0017.85,0017.10
2021-09-03 16:29:00,,0829.8,5.01,0.00,29.7,26.2,00.0,38.9,31.0,31.9,0001.9,0023.19,0017.83,0017.11
2021-09-03 16:30:00,,0829.8,5.00,0.00,29.6,26.7,00.0,38.9,31.1,32.2,0001.7,0023.47,0017.87,0017.12
2021-09-03 16:31:00,,0829.8,5.00,0.00,29.6,27.1,00.0,38.8,31.2,31.9,0001.6,0023.88,0017.91,0017.15
2021-09-03 16:32:00,,0829.8,5.01,0.00,29.6,27.5,00.0,38.8,31.3,32.1,0001.5,0024.60,0017.95,0017.19
2021-09-03 16:33:00,,0829.8,4.99,0.00,29.6,27.9,00.0,38.8,31.3,32.2,0001.4,0024.82,0017.98,0017.19
2021-09-03 16:34:00,,0829.8,5.01,0.00,29.7,28.1,00.0,38.8,31.4,32.0,0001.3,0025.01,0018.01,0017.22
2021-09-03 16:35:00,,0829.8,5.00,0.00,29.7,28.3,00.0,38.8,31.5,31.6,0001.5,0025.72,0018.01,0017.21
2021-09-03 16:36:00,,0829.8,4.99,0.00,29.7,28.5,00.0,38.8,31.5,31.4,0001.5,0025.87,0018.00,0017.19
2021-09-03 16:37:00,,0829.8,5.01,0.00,29.8,28.7,00.0,38.8,31.6,31.4,0001.4,0027.02,0018.04,0017.18
2021-09-03 16:38:00,,0829.8,5.01,0.00,29.8,28.8,00.0,38.8,31.6,31.9,0001.5,0027.50,0018.04,0017.16
2021-09-03 16:39:00,,0829.8,4.99,0.00,29.8,28.9,00.0,38.8,31.7,31.9,0001.6,0026.78,0018.05,0017.15
2021-09-03 16:40:00,,0829.8,4.99,0.00,29.9,29.0,00.0,38.8,31.7,31.8,0001.6,0026.28,0018.06,0017.15
2021-09-03 16:41:00,,0829.9,5.00,0.00,29.9,29.1,00.0,38.9,31.8,31.8,0001.8,0025.92,0018.04,0017.16
2021-09-03 16:42:00,,0829.9,5.01,0.00,30.0,29.1,00.0,38.9,31.8,32.0,0001.9,0025.61,0018.01,0017.14
2021-09-03 16:43:00,,0829.9,4.99,0.00,30.0,29.2,00.0,38.9,31.9,31.6,0001.7,0024.89,0017.97,0017.13
2021-09-03 16:44:00,,0829.9,4.99,0.00,30.0,28.9,00.0,38.9,31.8,31.4,0001.6,0024.70,0017.94,0017.14
2021-09-03 16:45:00,,0829.8,5.02,0.00,29.9,27.1,00.0,38.9,31.3,31.2,0001.6,0024.55,0017.91,0017.14
2021-09-03 16:46:00,,0829.8,4.99,0.00,29.8,26.1,00.0,38.9,31.0,31.7,0001.5,0024.17,0017.91,0017.15
2021-09-03 16:47:00,,0829.8,5.00,0.00,29.7,26.1,00.0,38.9,31.0,31.9,0001.6,0024.14,0017.97,0017.19
2021-09-03 16:48:00,,0829.8,5.01,0.00,29.6,26.6,00.0,38.8,31.1,32.5,0001.6,0023.32,0018.04,0017.26
2021-09-03 16:49:00,,0829.8,4.98,0.00,29.6,27.1,00.0,38.8,31.1,32.7,0001.5,0023.48,0018.12,0017.33
2021-09-03 16:50:00,,0829.7,5.00,0.00,29.6,27.5,00.0,38.8,31.2,32.8,0001.5,0024.35,0018.17,0017.39
2021-09-03 16:51:00,,0829.7,5.01,0.00,29.6,27.8,00.0,38.7,31.3,33.2,0001.4,0025.26,0018.25,0017.43
2021-09-03 16:52:00,,0829.7,5.00,0.00,29.6,28.1,00.0,38.7,31.4,32.6,0001.4,0025.63,0018.30,0017.49
2021-09-03 16:53:00,,0829.7,5.00,0.00,29.7,28.3,00.0,38.7,31.4,33.0,0001.2,0026.03,0018.31,0017.50
2021-09-03 16:54:00,,0829.6,5.00,0.00,29.7,28.5,00.0,38.7,31.5,33.1,0001.4,0026.33,0018.34,0017.53
2021-09-03 16:55:00,,0829.5,5.00,0.00,29.7,28.6,00.0,38.8,31.6,32.5,0001.5,0027.11,0018.45,0017.59
2021-09-03 16:56:00,,0829.5,5.01,0.00,29.8,28.8,00.0,38.8,31.6,32.2,0001.4,0027.39,0018.51,0017.63
2021-09-03 16:57:00,,0829.6,5.00,0.00,29.8,28.9,00.0,38.8,31.7,32.3,0001.3,0028.16,0018.53,0017.64
2021-09-03 16:58:00,,0829.6,5.00,0.00,29.9,29.0,00.0,38.8,31.7,31.8,0001.3,0028.22,0018.57,0017.69
2021-09-03 16:59:00,,0829.6,4.99,0.00,29.9,29.1,00.0,38.8,31.7,32.0,0001.3,0028.16,0018.58,0017.70
